Regional Weather Roundup
Issued by NWS

Home | Current Version | Previous Version | Text Only | Print | Product List | Glossary On
Versions: 1 2 3 4 5 6 7 8 9 10 11 12 13 14 15 16 17 18 19 20 21 22 23 24 25 26 27 28 29 30 31 32 33 34 35 36 37 38 39 40 41 42 43 44 45 46 47 48 49 50
000
ASUS44 KFWD 260215
RWRTX
NORTH TEXAS HOURLY WEATHER ROUNDUP
NATIONAL WEATHER SERVICE FORT WORTH TX
900 PM CDT WED APR 25 2018

NOTE: "FAIR" INDICATES FEW OR NO CLOUDS BELOW 12,000 FEET WITH NO
SIGNIFICANT WEATHER AND/OR OBSTRUCTIONS TO VISIBILITY.

TXZ118-119-260300-
DALLAS/FORT WORTH METROPLEX

CITY           SKY/WX    TMP DP  RH WIND       PRES   REMARKS
DFW AIRPORT    FAIR      54  49  83 W9        30.10S
DALLAS LOVE    FAIR      54  50  86 NW8       30.11F
FTW MEACHAM    FAIR      52  50  93 W5        30.12S
DAL-EXECUTIVE  FAIR      53  48  83 W8        30.11S
FTW-ALLIANCE   FAIR      50  48  93 W5        30.11S
FTW-NAS-JRB    FAIR      52  48  86 W5        30.13S
FTW-SPINKS     FAIR      51  47  87 NW5       30.14S
ARLINGTON      FAIR      51  49  92 W3        30.12F
GRAND PRAIRIE  CLOUDY    54  48  82 W6        30.14S
ADDISON        CLOUDY    54  50  87 W5        30.11F
MESQUITE       MOCLDY    53  49  88 NW3       30.11F
LANCASTER      MOCLDY    52  49  89 NW5       30.12F
$$

TXZ091>094-102>105-117-120-121-131>134-260300-
NORTH CENTRAL TEXAS

CITY           SKY/WX    TMP DP  RH WIND       PRES   REMARKS
SHRMAN/DENISON FAIR      49  45  86 CALM      30.11R
GAINESVILLE    FAIR      48  44  84 NW5       30.13R
BOWIE          FAIR      48  44  86 NW6       30.12S
BRIDGEPORT     FAIR      49  49 100 CALM      30.14S
DECATUR        FAIR      51  47  85 CALM      30.12R
DENTON         FAIR      52  47  83 NW5       30.11S
MCKINNEY       FAIR      52  50  93 W7        30.10S
BONHAM         FAIR      50  47  87 NW8       30.10R
GREENVILLE     CLOUDY    55  52  88 NW3       30.10S
ROCKWALL       CLOUDY    53  51  94 MISG      30.11S
TERRELL        FAIR      53  49  86 NW7       30.11S
WAXAHACHIE     MOCLDY    52  51  97 NW7       30.13S
CLEBURNE       FAIR      50  50 100 W5        30.15S
GRANBURY       FAIR      51  48  89 W3        30.15S
$$

TXZ083>090-098>101-113>116-127>130-139>142-154-155-260300-
WESTERN NORTH TEXAS

CITY           SKY/WX    TMP DP  RH WIND       PRES   REMARKS
WICHITA FALLS  FAIR      51  43  74 NE7       30.13R
WF-KICKAPOO    FAIR      54  45  70 NE9       30.15S
VERNON         FAIR      56  44  65 E7        30.14R
ABILENE        FAIR      51  44  77 CALM      30.16R
ABILENE-DYESS  FAIR      52  42  70 CALM      30.15S
GRAHAM           N/A     51  32  48 CALM      30.12S
BRECKENRIDGE   FAIR      51  45  77 SW3       30.14S
CISCO          FAIR      46  45  93 CALM      30.16S
EASTLAND       FAIR      44  43  97 CALM      30.15F FOG
RANGER         FAIR      46  46  98 W5        30.15S
MINERAL WELLS  FAIR      48  46  93 SW5       30.12S
STEPHENVILLE   MOCLDY    50  46  84 NW5       30.16F
COMANCHE       CLOUDY    49  49 100 NW7       30.16S
BROWNWOOD      CLOUDY    50  46  87 NW5       30.16S
COLEMAN        FAIR      49  45  84 NW3       30.16S
BRADY          CLOUDY    50  45  81 N13       30.16R
$$

TXZ143>147-156>162-174-175-260300-
CENTRAL TEXAS

CITY           SKY/WX    TMP DP  RH WIND       PRES   REMARKS
WACO           CLOUDY    54  48  80 MISG      30.12S
WACO-TSTC      CLOUDY    54  50  87 NW10      30.12S
WACO-MCGREGOR  CLOUDY    54  48  80 NW10      30.13S
HILLSBORO      CLOUDY    53  52  96 NW10      30.13R
CORSICANA      CLOUDY    53  50  89 NW14G24   30.12R
MEXIA          CLOUDY    53  48  83 NW13G22   30.10S
HEARNE         FAIR      61  52  72 NW21      30.08R
CAMERON        FAIR      59  51  75 N14G22    30.09R
TEMPLE         CLOUDY    55  50  83 NW15G23   30.12R
KILLEEN        CLOUDY    55  46  71 NW13      30.13R
KILLEEN-SKYLRK CLOUDY    56  50  80 N12       30.12R
FORT HOOD      CLOUDY    54  50  87 N13       30.09R
GATESVILLE     FAIR      54  46  76 NW13G18   30.14R
HAMILTON       CLOUDY    51  51 100 N9        30.14S
LAMPASAS       CLOUDY    53  47  81 N6        30.12R
$$

TXZ095>097-106>112-122>126-135>138-148>153-164>167-260300-
EAST TEXAS

CITY           SKY/WX    TMP DP  RH WIND       PRES   REMARKS
PARIS          CLOUDY    52  49  89 NW9       30.08R
SULPHUR SPRNGS CLOUDY    54  52  95 NW7       30.11R
MOUNT PLEASANT MOCLDY    53  51  94 NW10      30.08R
GILMER         LGT RAIN  53  52  97 W6        30.07R
MINEOLA        CLOUDY    54  52  94 NW5       30.09R
TYLER          LGT RAIN  54  52  93 NW10      30.07R
LONGVIEW       LGT RAIN  57  56  96 NW10      30.03S
MARSHALL       CLOUDY    55  52  90 NW13      30.05R
ATHENS         LGT RAIN  54  52  94 NW9       30.08S
PALESTINE      CLOUDY    57  54  89 NW10G17   30.08S
JACKSONVILLE   RAIN      56  54  92 NW7       30.08R
HENDERSON      CLOUDY    56  54  91 NW8       30.07R
CENTER         CLOUDY    61  55  81 NW8G18    30.02S
NACOGDOCHES      N/A     61  54  77 NW12      30.04R
LUFKIN         MOCLDY    65  53  65 NW9       30.02R
$$

SUPPLEMENTAL OBSERVATIONS (NWS FORT WORTH AREA)

CITY           SKY/WX    TMP DP  RH WIND       PRES   REMARKS
DENISON DAM      N/A     55  45  67 NW20        N/A
CADDO GRASSLND   N/A     50  48  93 NW2         N/A
CEDAR HILL       N/A     52  48  87 W2          N/A
LBJ GRASSLAND    N/A     48  45  87 CALM        N/A
POSSUM KINGDOM   N/A     50  46  87 SW6         N/A
GRANBURY         N/A     48  43  81 W3          N/A
COMANCHE         N/A     48  45  87 NW7         N/A
MCGREGOR         N/A     54  46  76 N9G18       N/A
TEMPLE           N/A     55  48  76 N16G23      N/A
LAKE LIMESTONE   N/A     55  48  76 NW10G18     N/A
ATHENS           N/A     54  50  87 NW3         N/A
PALESTINE        N/A     57  54  88 NW8G16      N/A
$$

SUPPLEMENTAL OBSERVATIONS (NWS NORMAN AREA)

CITY           SKY/WX    TMP DP  RH WIND       PRES   REMARKS
GOODLETT         N/A     56  37  48 NE7       30.14R
ODELL            N/A     51  43  74 NE8       30.15S
CROWELL          N/A     55  44  64 NE6       30.15R
KNOX CITY        N/A     52  43  71 SE7       30.15R
SEYMOUR          N/A     53  50  90 CALM      30.14S
MILLERS CREEK    N/A     55  46  71 E3          N/A
$$

SUPPLEMENTAL OBSERVATIONS (NWS SAN ANGELO AREA)

CITY           SKY/WX    TMP DP  RH WIND       PRES   REMARKS
WEINERT          N/A     53  43  70 SE6       30.15S
HASKELL          N/A     54  43  66 S7        30.15S
THROCKMORTON     N/A     53  43  69 CALM      30.15S
STAMFORD         N/A     51  47  87 S7        30.16S
CLYDE            N/A     47  44  89 CALM      30.17S
HAMBY            N/A     48  45  87 CALM        N/A
IVIE RESERVOIR   N/A     50  45  81 NW7         N/A
COLORADO BEND    N/A     54  48  82 N5G13       N/A
$$

SUPPLEMENTAL OBSERVATIONS (NWS SHREVEPORT AREA)

CITY           SKY/WX    TMP DP  RH WIND       PRES   REMARKS
CLARKSVILLE      N/A     52  48  87 NW6G15      N/A
TEXARKANA        N/A     55  54  94 NW8G18      N/A
LINDEN           N/A     55  50  82 NW8G17      N/A
CADDO LAKE       N/A     55  52  88 NW3         N/A
LUFKIN           N/A     63  52  67 MISG        N/A
N SABINE NF      N/A     61  57  88 MISG        N/A
S SABINE NF      N/A     68  55  64 N3          N/A
$$

SUPPLEMENTAL OBSERVATIONS ARE A COLLECTION OF AUTOMATED INSTRUMENTS
THAT ARE MAINTAINED BY A VARIETY OF FEDERAL AND STATE AGENCIES.
CERTAIN ELEMENTS...SUCH AS HUMIDITY VALUES AND SUSTAINED WIND
SPEEDS...MAY BE APPROXIMATED.




USA.gov is the U.S. government's official web portal to all federal, state and local government web resources and services.